User: anonymous
Location: Unspecified
(0.0000°N, 0.0000°E)
Time: 04:22:59
(UTC+00:00)
Language:

CANX 3B (BRITE-ASRA) - Orbit

View from above orbital plane
View from above orbital plane
View from above satellite
View from above satellite

Ground track
Ground track

The orbit data is extracted from the following two-line orbital elements,

1 39091U 13009F   14274.50193845  .00000217  00000-0  92123-4 0  4882
2 39091 098.6137 108.8677 0010766 005.0178 355.1145 14.34732285 83572
Epoch (UTC): 01 October 2014 12:02:47
Eccentricity: 0.0010766
inclination: 98.6137°
perigee height: 768 km
apogee height: 783 km
right ascension of ascending node: 108.8677°
argument of perigee: 5.0178°
revolutions per day: 14.34732285
mean anomaly at epoch: 355.1145°
orbit number at epoch: 8357

The dashed part of the orbit path shows where the satellite is in the earth's shadow,  

DLR